SCP
0 0 0 0 0 0 0 0 0 0 0 0 0 0 0 0 0 0 0 0 0 0 0 0 0 0 0 0 0 0 0 0 0 0 0 0 0 0 0 0 0 0 0 0 0 0 0 0 0
0 0 0 0 0 0 0 0 0 0 0 0 0 0 0 0 0 0 0 0 0 0 0 0 0 0 0 0 0 0 0 0 0 0 0 0 0 0 0 0 0 0 0 0 0 0 0 0 0
0 0 0 0 0 0 0 0 0 0 0 0 0 0 0 0 0 0 0 0 0 0 0 0 0 0 0 0 0 0 0 0 0 0 0 0 0 0 0 0 0 0 0 0 0 0 0 0 0
0 0 0 0 0 0 0 0 0 0 0 0 0 0 0 0 0 0 0 0 0 0 0 0 0 0 0 0 0 0 0 0 0 0 0 0 0 0 0 0 0 0 0 0 0 0 0 0 0
0 0 0 0 0 0 0 0 0 0 0 0 0 0 0 0 0 0 0 0 0 0 0 0 0 0 0 0 0 0 0 0 0 0 0 0 0 0 0 0 0 0 0 0 0 0 0 0 0
0 0 0 0 0 0 0 0 0 0 0 0 0 0 0 0 0 0 0 0 0 0 0 0 0 0 0 0 0 0 0 0 0 0 0 0 0 0 0 0 0 0 0 0 0 0 0 0 0
0 0 0 0 0 0 0 0 0 0 0 0 0 0 0 0 0 0 0 0 0 0 0 0 0 0 0 0 0 0 0 0 0 0 0 0 0 0 0 0 0 0 0 0 0 0 0 0 0
0 0 0 0 0 0 0 0 0 0 0 0 0 0 0 0 0 0 0 0 0 0 0 0 0 0 0 0 0 0 0 0 0 0 0 0 0 0 0 0 0 0 0 0 0 0 0 0 0
0 0 0 0 0 0 0 0 0 0 0 0 0 0 0 0 0 0 0 0 0 0 0 0 0 0 0 0 0 0 0 0 0 0 0 0 0 0 0 0 0 0 0 0 0 0 0 0 0
0 0 0 0 0 0 0 0 0 0 0 0 0 0 0 0 0 0 0 0 0 0 0 0 0 0 0 0 0 0 0 0 0 0 0 0 0 0 0 0 0 0 0 0 0 0 0 0 0
0 0 0 0 0 0 0 0 0 0 0 0 0 0 0 0 0 0 0 0 0 0 0 0 0 0 0 0 0 0 0 0 0 0 0 0 0 0 0 0 0 0 0 0 0 0 0 0 0
0 0 0 0 0 0 0 0 0 0 0 0 0 0 0 0 0 0 0 0 0 0 0 0 0 0 0 0 0 0 0 0 0 0 0 0 0 0 0 0 0 0 0 0 0 0 0 0 0
0 0 0 0 0 0 0 0 0 0 0 0 0 0 0 0 0 0 0 0 0 0 0 0 0 0 0 0 0 0 0 0 0 0 0 0 0 0 0 0 0 0 0 0 0 0 0 0 0
0 0 0 0 0 0 0 0 0 0 0 0 0 0 0 0 0 0 0 0 0 0 0 0 0 0 0 0 0 0 0 0 0 0 0 0 0 0 0 0 0 0 0 0 0 0 0 0 0
0 0 0 0 0 0 0 0 0 0 0 0 0 0 0 0 0 0 0 0 0 0 0 0 0 0 0 0 0 0 0 0 0 0 0 0 0 0 0 0 0 0 0 0 0 0 0 0 0
0 0 0 0 0 0 0 0 0 0 0 0 0 0 0 0 0 0 0 0 0 0 0 0 0 0 0 0 0 0 0 0 0 0 0 0 0 0 0 0 0 0 0 0 0 0 0 0 0
0 0 0 0 0 0 0 0 0 0 0 0 0 0 0 0 0 0 0 0 0 0 0 0 0 0 0 0 0 0 0 0 0 0 0 0 0 0 0 0 0 0 0 0 0 0 0 0 0
0 0 0 0 0 0 0 0 0 0 0 0 0 0 0 0 0 0 0 0 0 0 0 0 0 0 0 0 0 0 0 0 0 0 0 0 0 0 0 0 0 0 0 0 0 0 0 0 0
0 0 0 0 0 0 0 0 0 0 0 0 0 0 0 0 0 0 0 0 0 0 0 0 0 0 0 0 0 0 0 0 0 0 0 0 0 0 0 0 0 0 0 0 0 0 0 0 0
0 0 0 0 0 0 0 0 0 0 0 0 0 0 0 0 0 0 0 0 0 0 0 0 0 0 0 0 0 0 0 0 0 0 0 0 0 0 0 0 0 0 0 0 0 0 0 0 0
0 0 0 0 0 0 0 0 0 0 0 0 0 0 0 0 0 0 0 0 0 0 0 0 0 0 0 0 0 0 0 0 0 0 0 0 0 0 0 0 0 0 0 0 0 0 0 0 0
0 0 0 0 0 0 0 0 0 0 0 0 0 0 0 0 0 0 0 0 0 0 0 0 0 0 0 0 0 0 0 0 0 0 0 0 0 0 0 0 0 0 0 0 0 0 0 0 0
0 0 0 0 0 0 0 0 0 0 0 0 0 0 0 0 0 0 0 0 0 0 0 0 0 0 0 0 0 0 0 0 0 0 0 0 0 0 0 0 0 0 0 0 0 0 0 0 0
0 0 0 0 0 0 0 0 0 0 0 0 0 0 0 0 0 0 0 0 0 0 0 0 0 0 0 0 0 0 0 0 0 0 0 0 0 0 0 0 0 0 0 0 0 0 0 0 0
0 0 0 0 0 0 0 0 0 0 0 0 0 0 0 0 0 0 0 0 0 0 0 0 0 0 0 0 0 0 0 0 0 0 0 0 0 0 0 0 0 0 0 0 0 0 0 0 0
0 0 0 0 0 0 0 0 0 0 0 0 0 0 0 0 0 0 0 0 0 0 0 0 0 0 0 0 0 0 0 0 0 0 0 0 0 0 0 0 0 0 0 0 0 0 0 0 0
0 0 0 0 0 0 0 0 0 0 0 0 0 0 0 0 0 0 0 0 0 0 0 0 0 0 0 0 0 0 0 0 0 0 0 0 0 0 0 0 0 0 0 0 0 0 0 0 0
0 0 0 0 0 0 0 0 0 0 0 0 0 0 0 0 0 0 0 0 0 0 0 0 0 0 0 0 0 0 0 0 0 0 0 0 0 0 0 0 0 0 0 0 0 0 0 0 0
0 0 0 0 0 0 0 0 0 0 0 0 0 0 0 0 0 0 0 0 0 0 0 0 0 0 0 0 0 0 0 0 0 0 0 0 0 0 0 0 0 0 0 0 0 0 0 0 0
0 0 0 0 0 0 0 0 0 0 0 0 0 0 0 0 0 0 0 0 0 0 0 0 0 0 0 0 0 0 0 0 0 0 0 0 0 0 0 0 0 0 0 0 0 0 0 0 0
Wind_Speed
5 3 3 5 7 6 1 2 3 3 2 1 2 5 7 6 4 2 2 6 10 9 7 9 11 12 12 11 11 10 11 11 12 14 15 15 15 15 15 14 14 15 16 17 17 17 17 17 16
2 2 6 7 6 2 3 3 4 4 4 4 3 4 4 2 1 5 5 6 11 10 8 8 11 12 12 11 11 11 11 11 12 13 14 15 15 15 15 14 14 15 15 16 16 17 17 16 16
1 5 6 5 4 6 5 4 5 2 3 3 3 2 2 3 4 6 5 9 10 8 7 9 11 12 12 12 11 11 11 11 12 13 14 15 15 15 14 13 13 14 15 15 16 16 16 16 16
3 6 6 5 2 5 4 4 5 5 3 2 4 3 1 1 5 5 8 10 10 8 7 9 11 13 13 12 12 11 11 11 12 13 14 15 14 14 13 13 13 13 14 15 15 16 16 15 16
5 5 5 2 2 2 2 3 5 4 4 2 4 4 1 2 3 7 10 10 10 8 7 8 11 12 12 12 12 12 11 11 12 13 13 14 14 13 13 13 13 13 13 14 15 15 15 15 15
6 5 4 2 2 2 1 3 4 3 3 3 5 5 2 1 5 8 9 9 8 9 7 7 10 10 10 11 11 11 11 11 12 12 13 13 13 13 12 12 12 12 13 13 14 14 14 14 15
6 5 4 4 1 1 2 4 4 4 3 5 6 6 1 1 5 8 8 7 7 7 7 6 6 7 9 9 9 9 9 10 11 11 11 11 11 12 11 11 12 12 12 13 13 13 13 14 14
6 6 3 3 3 3 3 5 2 6 4 2 5 6 5 5 6 7 7 7 7 7 7 6 5 5 5 6 8 9 9 9 9 10 10 10 10 10 10 8 10 11 12 12 12 13 13 13 13
4 6 3 5 6 4 4 3 2 1 4 2 2 3 2 7 10 9 6 6 7 8 7 7 6 5 5 5 6 7 8 8 9 8 10 8 5 5 6 7 9 10 11 12 12 12 13 12 12
5 4 6 4 6 5 6 5 5 4 2 2 2 1 3 9 12 12 11 12 12 12 11 8 8 7 6 5 4 4 4 5 5 5 5 4 4 4 5 7 8 9 9 10 11 12 11 8 4
4 6 4 2 2 5 6 4 4 7 5 8 8 7 8 9 11 12 12 12 12 11 11 10 10 8 7 5 4 3 3 3 4 5 5 5 4 3 3 3 4 5 6 5 6 6 4 4 3
4 2 2 1 1 5 6 6 4 7 7 3 6 8 11 14 16 16 15 12 10 9 12 11 11 9 8 6 5 4 3 3 3 4 6 5 3 3 3 2 3 3 2 4 3 3 4 4 4
3 3 1 1 3 3 4 3 3 6 6 1 5 9 12 15 14 12 9 8 9 11 12 12 12 12 10 8 6 6 5 5 5 4 5 6 4 5 4 3 3 3 3 3 3 3 4 4 3
4 4 2 2 2 1 2 0 1 6 1 3 5 9 11 13 13 9 9 10 12 13 12 11 13 12 11 9 8 7 6 5 5 5 6 6 5 5 5 4 4 3 3 3 3 4 4 3 3
4 5 2 1 1 1 2 4 6 4 1 3 5 6 8 9 8 11 12 12 13 11 10 11 12 12 13 12 10 7 6 6 6 6 6 7 6 6 6 5 5 4 4 4 3 3 3 3 3
5 4 1 3 2 1 3 8 6 2 2 5 5 6 7 9 10 10 9 9 8 8 9 11 9 12 13 12 10 7 7 7 6 6 6 8 8 8 7 6 6 5 5 4 4 4 3 3 3
3 3 4 3 2 2 4 8 5 2 0 4 6 7 8 9 10 12 11 10 9 9 9 11 12 13 14 12 9 8 7 8 7 7 7 9 10 9 8 7 6 7 6 5 5 3 3 3 3
6 5 4 4 2 3 4 8 8 5 3 6 7 8 8 10 14 11 10 11 10 9 9 10 11 12 11 10 8 7 8 8 7 7 8 10 10 11 9 7 7 7 6 6 6 5 3 3 4
7 6 4 3 1 4 5 8 11 8 5 9 9 9 10 12 10 6 7 8 9 9 11 12 13 13 11 9 10 10 10 8 7 8 9 11 11 12 11 8 8 9 9 9 9 5 5 3 3
6 5 3 0 1 2 3 8 9 7 8 8 9 10 10 9 8 7 6 6 8 10 12 12 14 12 13 12 9 6 6 5 6 6 8 11 12 13 11 12 10 10 9 9 10 7 5 4 6
4 6 5 3 2 3 3 8 7 6 4 6 7 8 8 8 10 7 5 6 6 8 11 11 13 13 12 11 5 3 3 2 4 7 8 9 11 12 12 13 11 11 11 11 13 13 12 9 9
5 6 5 4 3 2 2 5 8 6 9 8 7 5 6 6 5 5 4 4 4 6 6 8 8 9 9 9 8 10 10 10 10 7 6 7 9 10 12 12 13 12 11 11 12 14 11 9 9
5 4 5 3 4 1 1 2 10 4 6 8 5 4 5 5 3 3 2 2 2 2 1 3 4 5 6 8 9 10 10 9 4 3 5 6 7 9 10 11 11 12 11 12 12 13 13 11 11
8 8 7 6 5 3 5 6 9 6 7 4 3 5 6 5 4 4 4 5 5 5 4 2 1 1 3 5 7 9 10 8 5 5 5 5 4 6 8 9 10 10 10 11 12 13 15 13 12
5 8 4 1 1 7 2 4 12 8 5 4 5 5 5 3 4 6 7 8 8 8 7 5 4 2 1 2 3 5 6 6 7 6 6 5 4 5 7 7 9 9 10 10 10 12 13 14 14
7 9 9 8 7 5 2 8 11 6 5 4 3 2 2 4 5 6 6 6 6 7 7 6 5 4 3 2 0 1 2 2 3 4 4 5 5 6 6 7 8 8 8 9 9 10 11 11 14
8 5 7 8 3 1 6 8 11 4 2 1 2 2 3 4 5 5 6 6 7 7 7 6 6 6 5 3 2 2 1 2 3 3 3 4 4 4 5 6 7 8 8 8 8 9 10 10 12
6 11 6 7 7 5 6 5 6 5 5 3 3 3 3 4 5 6 6 6 6 6 6 6 6 5 5 4 3 2 2 2 3 3 4 4 4 4 5 6 7 8 8 8 9 9 9 11 11
7 5 6 6 6 8 5 9 8 7 6 7 5 3 3 4 4 5 5 6 6 6 6 7 7 7 7 6 4 4 3 3 3 3 4 4 4 4 5 6 7 8 8 8 9 11 10 11 12
6 9 10 9 7 6 4 9 4 4 5 6 5 4 3 4 4 4 5 6 7 8 7 7 7 7 7 5 4 4 4 4 3 4 4 4 5 5 5 6 6 7 8 8 10 11 11 12 13
Wind_Direction
359 29 60 53 52 51 145 209 183 166 200 156 138 147 153 158 168 184 132 138 132 135 138 132 130 128 124 120 116 112 109 106 105 106 104 103 100 98 95 95 94 93 91 90 90 88 87 85 84
356 42 52 57 84 94 254 221 184 189 167 122 85 102 118 142 112 124 140 150 137 136 135 135 134 133 130 125 121 117 112 108 108 108 107 105 103 100 98 97 96 94 92 91 91 90 90 88 86
59 52 76 73 119 180 209 208 189 150 148 138 101 82 135 164 159 165 170 147 135 135 135 141 140 139 134 129 125 121 117 114 112 111 109 106 104 101 100 98 96 95 94 93 92 92 91 89 88
78 48 56 77 193 212 215 195 170 138 134 115 122 98 38 113 173 173 145 143 135 135 138 147 144 143 139 135 131 127 123 119 115 113 110 108 106 105 103 101 99 96 96 95 95 94 92 91 90
60 75 62 40 274 270 248 164 157 152 151 129 124 123 126 356 122 134 142 145 143 140 142 151 147 145 144 141 137 132 128 123 118 114 112 111 110 110 109 107 103 100 98 98 98 97 95 93 92
62 71 94 202 279 324 151 145 148 137 139 134 127 131 169 20 135 147 147 147 146 145 146 150 150 148 147 144 141 137 133 129 124 120 118 117 116 116 115 113 109 106 103 102 101 100 98 96 95
110 111 159 181 191 292 181 150 162 158 165 186 153 132 257 202 168 150 144 139 140 144 145 148 148 150 150 145 142 140 137 134 131 127 122 119 119 120 117 117 116 113 110 108 105 104 104 102 99
123 108 116 165 175 229 172 154 182 165 177 140 142 149 206 198 149 133 128 136 145 151 153 151 149 147 145 144 146 142 138 134 129 122 118 117 117 116 114 115 120 119 116 113 110 108 106 103 100
94 82 162 197 189 216 162 154 149 170 124 147 211 196 215 138 131 132 136 154 165 171 169 163 158 154 148 146 149 145 140 134 126 122 122 113 107 107 110 121 124 124 121 118 115 111 106 100 97
93 133 210 202 191 186 171 166 165 133 139 201 220 149 114 136 151 163 173 178 183 185 183 178 173 165 157 154 143 141 136 133 129 129 125 117 116 116 116 124 123 121 118 119 118 114 105 95 84
128 175 212 207 186 160 154 160 159 142 202 216 202 179 151 159 169 181 187 188 190 187 187 187 183 175 169 160 156 150 141 139 140 142 137 130 121 118 112 112 111 106 100 94 103 96 88 92 96
126 185 203 189 150 154 159 153 171 189 212 240 215 163 165 174 185 191 193 192 186 186 193 191 187 183 180 170 170 166 162 162 163 161 153 146 142 141 140 134 129 115 106 111 104 104 103 98 99
144 163 127 72 84 123 126 156 202 237 250 13 132 152 180 187 196 200 197 191 190 195 196 194 191 190 186 180 181 180 180 178 174 168 169 164 161 162 157 153 148 140 132 134 131 126 124 116 107
158 123 97 56 57 70 143 202 275 262 220 138 157 183 196 200 200 194 196 198 201 203 199 194 196 195 192 191 191 190 188 181 175 181 182 176 171 169 168 169 168 164 156 148 145 144 137 128 120
106 100 66 32 94 37 95 282 246 258 131 196 205 213 219 226 214 209 208 207 206 204 197 196 197 197 198 199 199 195 192 186 187 190 187 185 181 178 178 179 183 178 158 145 134 129 122 128 128
74 96 193 268 183 145 150 258 273 334 206 235 241 241 241 242 232 231 225 220 208 199 198 198 195 199 203 203 202 201 198 194 196 192 191 194 191 187 184 188 193 174 162 159 157 152 146 154 156
62 150 211 260 183 151 179 243 277 39 82 263 263 253 247 252 248 238 229 222 213 204 199 198 199 201 204 204 203 205 203 202 200 195 196 198 198 194 193 197 192 174 173 173 172 168 160 169 167
186 186 202 229 200 159 206 255 277 284 292 280 274 265 254 250 247 237 226 222 218 211 205 203 203 205 202 202 203 207 211 210 204 201 201 198 200 199 199 200 189 179 179 183 185 176 161 159 157
156 156 187 224 181 175 230 266 278 286 280 272 269 262 256 254 260 254 233 219 212 210 208 208 207 206 198 202 207 211 216 212 209 207 202 201 202 200 201 201 193 189 194 196 189 169 166 157 143
129 145 173 130 77 157 279 277 273 270 254 246 254 260 259 268 283 270 250 224 213 213 213 213 212 206 203 207 207 207 206 207 210 206 207 204 204 202 203 204 200 196 198 195 188 174 173 172 176
156 163 177 171 93 51 346 306 298 291 291 281 260 258 266 261 269 277 267 240 224 221 216 215 214 210 207 203 185 173 174 184 201 212 215 211 207 205 205 206 205 201 200 201 198 194 187 194 197
207 209 165 143 118 291 22 294 291 298 312 295 291 297 291 285 275 279 277 267 244 241 229 220 215 209 204 192 192 198 209 219 221 217 214 207 207 210 210 209 208 206 206 207 203 201 202 193 199
171 116 123 121 132 2 313 225 280 310 284 279 296 327 324 319 320 328 342 338 338 321 263 221 208 205 196 192 199 205 219 227 222 204 210 212 211 214 214 213 212 212 211 211 206 202 204 207 207
131 84 65 54 76 265 216 188 271 245 229 266 308 333 341 350 14 25 30 37 31 27 33 44 114 179 183 189 197 207 219 222 217 213 216 219 220 223 223 221 220 218 216 214 212 208 209 213 217
125 106 77 14 335 247 231 215 249 249 243 251 281 309 331 354 25 32 32 32 30 30 33 40 59 56 66 167 199 214 223 222 225 223 220 222 224 228 229 226 229 228 224 219 214 213 214 215 217
178 147 159 183 211 260 240 233 253 260 271 266 266 288 358 30 38 42 38 40 36 34 35 40 47 45 42 53 329 262 242 232 239 235 228 227 230 232 232 231 236 237 233 226 219 220 219 218 221
151 183 145 120 113 264 256 270 295 283 263 158 121 97 65 50 49 46 41 43 41 37 32 34 43 41 33 28 22 1 317 269 263 261 249 247 245 243 237 236 239 241 239 236 230 233 227 222 224
149 143 124 140 160 224 266 249 237 231 196 156 140 125 81 60 53 46 42 41 40 38 33 35 42 42 30 25 18 359 335 310 293 285 272 265 260 250 245 243 242 244 243 241 240 244 238 233 232
128 150 146 144 159 167 235 260 227 209 175 161 161 144 112 87 67 51 42 36 39 40 37 35 32 32 25 17 11 6 351 336 323 301 287 279 271 259 250 245 244 245 245 242 243 246 243 243 243
180 174 151 164 203 189 191 261 271 202 179 162 156 139 115 90 71 56 48 42 39 36 32 29 27 26 14 5 9 11 2 353 342 321 306 293 281 269 258 254 250 249 248 244 244 249 247 248 249